Find Hodoyoshi-3

NORAD ID: 40015 Int'l Des: 2014-033 Owner: TOK Country: J operational
LEOCIRCULARRETROGRADESSO

Current View

Loading 3D Globe...

About Hodoyoshi-3

Description loading...

Upcoming Passes

Passes for default location (London). Set your location on the main map for personalized predictions.

Altitude History

Loading altitude history...

Two-Line Element Set

1 40015U 14033F 26146.42618212 .00001062 00000-0 12827-3 0 9998
2 40015 97.6401 310.3463 0034257 67.4897 292.9940 14.85336744644397
Epoch: May 26, 2026 • Age: 13 hours

Current Status

Altitude 655.4 km
Velocity 7.52 km/s
Sub-Earth Point -68.66°S, 103.58°E
Launch Date Jun 19, 2014
Age 11.9 years
Type other

Technical Details

Classification Payload
Mass 58.00 kg
Dry Mass 58.00 kg
Total Mass 58.00 kg
Length 0.70 m
Diameter 0.50 m
Span 1.50 m
Shape Box+ 2 pan
Manufacturer AXEL
Bus Type Hodoyoshi
Phase Status In Orbit
Owner/State TOK/J

Most Searched